TimeCDT,TemperatureF,Dew PointF,Humidity,Sea Level PressureIn,VisibilityMPH,Wind Direction,Wind SpeedMPH,Gust SpeedMPH,PrecipitationIn,Events,Conditions,WindDirDegrees,DateUTC
12:51 AM,78.1,63.0,60,30.17,10.0,SSE,5.8,-,N/A,,Mostly Cloudy,160,2013-08-25 05:51:00
1:51 AM,75.9,63.0,64,30.17,10.0,SSE,6.9,-,N/A,,Scattered Clouds,160,2013-08-25 06:51:00
2:51 AM,75.9,63.0,64,30.18,10.0,SE,8.1,-,N/A,,Scattered Clouds,140,2013-08-25 07:51:00
3:51 AM,72.0,62.1,71,30.19,10.0,SE,4.6,-,N/A,,Mostly Cloudy,130,2013-08-25 08:51:00
4:51 AM,71.1,63.0,75,30.20,10.0,SE,5.8,-,N/A,,Scattered Clouds,130,2013-08-25 09:51:00
5:51 AM,71.1,63.0,75,30.22,10.0,Calm,Calm,-,N/A,,Scattered Clouds,0,2013-08-25 10:51:00
6:51 AM,71.1,63.0,75,30.24,10.0,Calm,Calm,-,N/A,,Scattered Clouds,0,2013-08-25 11:51:00
7:51 AM,75.0,64.9,71,30.25,10.0,Calm,Calm,-,N/A,,Scattered Clouds,0,2013-08-25 12:51:00
8:51 AM,81.0,63.0,54,30.24,10.0,South,6.9,-,N/A,,Scattered Clouds,180,2013-08-25 13:51:00
9:51 AM,84.0,64.0,51,30.23,10.0,South,4.6,-,N/A,,Scattered Clouds,190,2013-08-25 14:51:00
10:51 AM,87.1,64.9,48,30.23,10.0,Variable,5.8,-,N/A,,Scattered Clouds,0,2013-08-25 15:51:00
11:51 AM,88.0,62.1,42,30.21,10.0,SW,4.6,-,N/A,,Scattered Clouds,230,2013-08-25 16:51:00
12:51 PM,91.0,61.0,36,30.19,10.0,SSW,4.6,-,N/A,,Scattered Clouds,210,2013-08-25 17:51:00
1:51 PM,91.9,59.0,33,30.18,10.0,SSW,8.1,-,N/A,,Scattered Clouds,210,2013-08-25 18:51:00
2:51 PM,93.0,59.0,32,30.16,10.0,SSW,9.2,17.3,N/A,,Mostly Cloudy,200,2013-08-25 19:51:00
3:51 PM,91.9,57.0,31,30.15,10.0,Variable,6.9,-,N/A,,Mostly Cloudy,0,2013-08-25 20:51:00
4:51 PM,91.9,57.0,31,30.14,10.0,ESE,4.6,-,N/A,,Scattered Clouds,110,2013-08-25 21:51:00
5:51 PM,91.0,59.0,34,30.14,10.0,SSE,5.8,-,N/A,,Scattered Clouds,150,2013-08-25 22:51:00
6:51 PM,89.1,62.1,40,30.14,10.0,SE,11.5,-,N/A,,Partly Cloudy,140,2013-08-25 23:51:00
7:51 PM,87.1,63.0,44,30.15,10.0,SSE,10.4,-,N/A,,Scattered Clouds,150,2013-08-26 00:51:00
8:51 PM,86.0,64.9,49,30.15,10.0,SSE,6.9,-,N/A,,Partly Cloudy,160,2013-08-26 01:51:00
9:51 PM,84.9,66.9,55,30.16,10.0,SSE,11.5,-,N/A,,Clear,160,2013-08-26 02:51:00
10:51 PM,82.9,70.0,65,30.17,9.0,South,11.5,-,N/A,,Clear,180,2013-08-26 03:51:00
11:51 PM,82.0,71.1,69,30.17,9.0,South,8.1,-,N/A,,Partly Cloudy,180,2013-08-26 04:51:00